KD0RXN-4 Weather Reports


time (UTC)temp
C
wind
direction
speed
KPH
gust
KPH
rain 1hr
cm
rain 24hr
cm
rain mn
cm
humidity
%
barometer
mb
20260506132527 8 32 0.0 0.0 0.00 0.51 0.51 84 1015.0
20260506132051 8 50 0.0 0.0 0.00 0.51 0.51 84 1015.0
20260506131536 8 76 0.0 0.0 0.00 0.51 0.51 85 1015.1
20260506131022 7 72 0.0 0.0 0.00 0.51 0.51 86 1015.2
20260506130528 7 61 0.0 0.0 0.00 0.51 0.51 86 1015.1
20260506130033 7 85 0.0 0.0 0.00 0.51 0.51 87 1015.1
20260506125520 7 39 0.0 0.0 0.00 0.51 0.51 87 1014.9
20260506125026 7 65 0.0 0.0 0.00 0.51 0.51 87 1015.0
20260506124537 7 105 0.0 0.0 0.00 0.51 0.51 88 1015.1
20260506124023 7 13 0.0 0.0 0.00 0.51 0.51 88 1015.3
20260506123549 7 19 0.0 0.0 0.00 0.51 0.51 88 1015.2
20260506123033 7 5 0.0 0.0 0.00 0.51 0.51 88 1015.3
20260506122519 7 36 0.0 0.0 0.00 0.51 0.51 89 1015.4
20260506122025 7 355 0.0 0.0 0.00 0.51 0.51 89 1015.2
20260506121531 7 52 0.0 0.0 0.00 0.51 0.51 89 1015.1
20260506121036 7 20 0.0 0.0 0.00 0.51 0.51 90 1015.1
20260506120522 7 5 0.0 0.0 0.00 0.51 0.51 89 1015.1
20260506120028 7 63 0.0 0.0 0.00 0.51 0.51 90 1015.1
20260506115554 7 303 0.0 0.0 0.00 0.51 0.51 90 1015.2
20260506115023 7 244 0.0 0.0 0.00 0.51 0.51 90 1015.0
20260506114529 7 349 0.0 0.0 0.00 0.51 0.51 90 1015.0
20260506114036 7 325 0.0 0.0 0.00 0.51 0.51 90 1015.0
20260506113522 7 221 0.0 0.0 0.00 0.51 0.51 90 1014.9
20260506113029 7 325 0.0 0.0 0.00 0.51 0.51 90 1014.8
20260506112535 7 86 0.0 0.0 0.00 0.51 0.51 90 1014.7
20260506112021 7 275 0.0 0.0 0.00 0.51 0.51 90 1014.5
20260506111527 7 305 0.0 0.0 0.00 0.51 0.51 90 1014.2
20260506111033 7 52 0.0 0.0 0.00 0.51 0.51 90 1013.9
20260506110537 7 52 0.0 0.0 0.00 0.51 0.51 90 1013.7
20260506110026 7 46 0.0 0.0 0.00 0.51 0.51 90 1013.7
20260506105532 7 46 0.0 0.0 0.00 0.51 0.51 90 1013.8
20260506105019 7 50 0.0 0.0 0.00 0.51 0.51 90 1013.8
20260506104525 7 19 0.0 0.0 0.00 0.51 0.51 90 1013.7
20260506104031 7 19 0.0 0.0 0.00 0.51 0.51 90 1013.9
20260506103536 7 15 0.0 0.0 0.00 0.51 0.51 90 1013.9
20260506103023 7 11 0.0 0.0 0.00 0.51 0.51 91 1013.8
20260506102527 7 12 0.0 0.0 0.00 0.51 0.51 90 1013.5
20260506102034 7 342 0.0 0.0 0.00 0.51 0.51 90 1013.7
20260506101518 7 23 0.0 0.0 0.00 0.51 0.51 91 1013.5
20260506101022 7 28 0.0 0.0 0.00 0.51 0.51 91 1013.2
20260506100547 7 355 0.0 0.0 0.00 0.51 0.51 91 1013.6
20260506100035 7 17 0.0 0.0 0.00 0.51 0.51 91 1013.7
20260506095540 7 26 0.0 0.0 0.00 0.51 0.51 91 1013.2
20260506095022 7 15 0.0 0.0 0.00 0.51 0.51 91 1013.2
20260506094527 7 351 0.0 0.0 0.00 0.51 0.51 91 1013.1
20260506094032 7 55 0.0 0.0 0.00 0.51 0.51 91 1013.1
20260506093537 7 14 0.0 0.0 0.00 0.51 0.51 91 1013.2
20260506093042 7 12 0.0 0.0 0.00 0.51 0.51 91 1013.2
20260506092525 7 13 0.0 0.0 0.00 0.51 0.51 91 1013.1
20260506092029 7 325 0.0 0.0 0.00 0.51 0.51 91 1013.1
20260506091535 7 323 0.0 0.0 0.00 0.51 0.51 91 1013.1
20260506091020 7 234 0.0 0.0 0.00 0.51 0.51 91 1012.9
20260506090525 7 233 0.0 0.0 0.00 0.51 0.51 91 1012.7
20260506090032 6 45 0.0 0.0 0.00 0.51 0.51 90 1011.8
20260506085537 6 78 0.0 0.0 0.00 0.51 0.51 90 1011.2
20260506085021 7 74 0.0 0.0 0.00 0.51 0.51 90 1011.5
20260506084545 7 321 0.0 0.0 0.00 0.51 0.51 90 1011.9
20260506084030 7 99 0.0 0.0 0.00 0.51 0.51 90 1011.9
20260506083555 7 228 0.0 0.0 0.00 0.51 0.51 90 1012.5
20260506083019 6 71 0.0 0.0 0.00 0.51 0.51 90 1011.5
20260506082525 7 19 0.0 0.0 0.00 0.51 0.51 90 1011.0
20260506082030 7 35 0.0 0.0 0.00 0.51 0.51 90 1011.1
20260506081534 7 35 0.0 0.0 0.00 0.51 0.51 90 1011.0
20260506081019 7 35 0.0 0.0 0.00 0.51 0.51 90 1011.4
20260506080525 7 78 0.0 0.0 0.00 0.51 0.51 90 1011.1
20260506073021 7 53 0.0 0.0 0.00 0.51 0.51 90 1011.7
20260506072527 7 55 0.0 0.0 0.00 0.51 0.51 90 1011.8
20260506072033 7 59 0.0 0.0 0.00 0.51 0.51 90 1012.1
20260506071538 7 53 0.0 0.0 0.00 0.51 0.51 90 1012.2
20260506071023 7 29 0.0 0.0 0.00 0.51 0.51 90 1012.6
20260506070528 7 29 0.0 0.0 0.00 0.51 0.51 90 1012.6
20260506062037 7 19 0.0 0.0 0.00 0.51 0.51 89 1012.4
20260506061521 7 19 0.0 0.0 0.00 0.51 0.51 89 1012.6
20260506061048 7 72 0.0 0.0 0.00 0.51 0.51 89 1012.5
20260506060536 7 72 0.0 0.0 0.00 0.51 0.51 89 1012.6
20260506051026 7 64 0.0 0.0 0.00 0.51 0.51 89 1011.4
20260506050551 7 82 0.0 0.0 0.03 0.51 0.51 89 1011.3
20260506045048 7 49 0.0 0.0 0.03 0.51 0.51 89 1011.5
20260506044553 7 61 0.0 0.0 0.03 0.51 0.51 89 1011.3
20260506044056 7 25 0.0 0.0 0.03 0.51 0.51 89 1011.4
20260506043521 7 71 0.0 0.0 0.03 0.51 0.51 89 1011.2
20260506043026 7 55 0.0 0.0 0.03 0.51 0.51 88 1011.4
20260506042530 7 36 0.0 0.0 0.03 0.51 0.51 88 1011.4
20260506042036 7 68 0.0 0.0 0.03 0.51 0.51 88 1011.2
20260506041540 7 74 0.0 0.0 0.03 0.51 0.51 88 1011.1
20260506041023 7 319 0.0 1.6 0.03 0.51 0.51 88 1011.0
20260506040528 7 60 0.0 0.0 0.00 0.48 0.48 88 1010.8
20260506040033 7 81 0.0 0.0 0.00 0.48 0.48 88 1010.8
20260506035558 7 22 0.0 0.0 0.00 0.48 0.48 88 1011.1
20260506035022 7 59 0.0 0.0 0.00 0.48 0.48 89 1011.1
20260506034530 7 65 0.0 0.0 0.00 0.48 0.48 89 1011.0
20260506034035 7 45 0.0 0.0 0.00 0.48 0.48 89 1011.0
20260506033521 7 71 0.0 1.6 0.00 0.48 0.48 89 1011.3
20260506033025 7 71 0.0 1.6 0.00 0.48 0.48 89 1011.2
20260506032530 7 67 0.0 0.0 0.00 0.48 0.48 89 1011.3
20260506032036 7 67 0.0 3.2 0.00 0.48 0.48 89 1011.4
20260506031521 7 39 0.0 3.2 0.00 0.48 0.48 89 1011.4
20260506031026 7 81 0.0 1.6 0.00 0.48 0.48 89 1010.9
20260506030531 7 78 0.0 1.6 0.00 0.48 0.48 89 1010.8
20260506030036 7 355 0.0 1.6 0.00 0.48 0.48 89 1010.7
20260506025526 7 59 0.0 0.0 0.00 0.48 0.48 89 1010.4
20260506025031 7 39 0.0 1.6 0.00 0.48 0.48 89 1010.6
20260506024556 7 22 0.0 1.6 0.00 0.48 0.48 89 1010.7
20260506024020 7 63 0.0 0.0 0.00 0.48 0.48 89 1010.6
20260506023526 7 84 0.0 1.6 0.00 0.48 0.48 89 1010.4
20260506023051 7 64 0.0 1.6 0.00 0.48 0.48 89 1010.4
20260506022535 7 41 0.0 1.6 0.00 0.48 0.48 89 1010.4
20260506022019 7 53 0.0 0.0 0.00 0.48 0.48 89 1010.3
20260506021525 7 360 0.0 1.6 0.00 0.48 0.48 89 1010.0
20260506021029 7 32 0.0 1.6 0.00 0.48 0.48 89 1010.3
20260506020535 7 59 0.0 1.6 0.00 0.48 0.48 89 1010.1
20260506020041 7 15 0.0 0.0 0.00 0.48 0.48 89 1010.4
20260506015525 7 13 0.0 0.0 0.00 0.48 0.48 89 1010.2
20260506015034 7 46 0.0 1.6 0.00 0.48 0.48 89 1009.9
20260506014520 7 69 0.0 0.0 0.00 0.48 0.48 89 1010.1
20260506014026 7 42 0.0 1.6 0.00 0.48 0.48 89 1009.7
20260506013540 7 94 0.0 0.0 0.00 0.48 0.48 89 1009.7
20260506013035 7 40 0.0 0.0 0.00 0.48 0.48 89 1009.5
20260506012519 8 33 0.0 0.0 0.00 0.48 0.48 89 1009.4
20260506012023 7 32 0.0 0.0 0.00 0.48 0.48 89 1009.2
20260506011528 8 40 0.0 0.0 0.00 0.48 0.48 89 1009.3
20260506011036 8 41 0.0 0.0 0.00 0.48 0.48 89 1009.3
20260506010541 8 38 0.0 0.0 0.00 0.48 0.48 89 1009.5
20260506010025 8 38 0.0 0.0 0.00 0.48 0.48 89 1009.0
20260506005550 8 34 0.0 0.0 0.00 0.48 0.48 89 1008.8
20260506005018 7 360 0.0 1.6 0.00 0.48 0.48 89 1009.0
20260506004028 7 34 0.0 1.6 0.00 0.48 0.48 89 1009.2
20260506003533 8 72 0.0 1.6 0.00 0.48 0.48 89 1009.0
20260506003019 7 32 0.0 3.2 0.03 0.48 0.48 89 1008.9
20260506002522 7 59 0.0 3.2 0.03 0.48 0.48 89 1008.6
20260506002029 7 48 0.0 3.2 0.03 0.48 0.48 89 1008.8
20260506001554 7 70 0.0 3.2 0.03 0.48 0.48 89 1008.7
20260506001059 7 91 0.0 6.4 0.03 0.48 0.48 89 1008.7
20260506000542 8 75 0.0 6.4 0.03 0.48 0.48 89 1008.7
20260506000047 8 36 0.0 3.2 0.03 0.48 0.48 88 1008.7
20260505235530 8 46 0.0 0.0 0.03 0.48 0.48 88 1008.7
20260505235036 8 44 0.0 0.0 0.03 0.48 0.48 88 1008.8
20260505234542 8 73 0.0 0.0 0.03 0.48 0.48 88 1008.4
20260505234026 8 51 0.0 1.6 0.03 0.48 0.48 88 1008.7
20260505233535 8 36 0.0 1.6 0.03 0.48 0.48 88 1008.5
20260505233041 8 40 0.0 1.6 0.00 0.46 0.46 88 1008.5
20260505232524 8 36 0.0 1.6 0.00 0.46 0.46 88 1008.5
20260505232030 8 93 0.0 3.2 0.00 0.46 0.46 88 1008.5
20260505231534 8 21 0.0 3.2 0.00 0.46 0.46 87 1008.5
20260505231020 8 83 0.0 3.2 0.00 0.46 0.46 87 1008.2
20260505230526 8 55 0.0 3.2 0.00 0.46 0.46 87 1008.4
20260505230031 8 63 0.0 1.6 0.00 0.46 0.46 87 1008.3
20260505225535 8 53 0.0 1.6 0.00 0.46 0.46 87 1008.3
20260505225020 8 67 0.0 3.2 0.00 0.46 0.46 87 1008.5
20260505224544 8 77 0.0 4.8 0.00 0.46 0.46 87 1008.6
20260505224030 8 44 0.0 4.8 0.03 0.46 0.46 86 1008.6
20260505223519 8 298 0.0 4.8 0.03 0.46 0.46 86 1008.4
20260505223024 8 70 0.0 4.8 0.03 0.46 0.46 86 1008.4
20260505222528 8 40 0.0 14.5 0.05 0.46 0.46 85 1008.1
20260505222035 8 64 0.0 14.5 0.05 0.46 0.46 85 1008.3
20260505221520 8 328 0.0 8.0 0.05 0.46 0.46 84 1008.5
20260505221025 8 53 0.0 8.0 0.05 0.46 0.46 84 1008.4
20260505220530 8 48 0.0 4.8 0.05 0.46 0.46 85 1008.3
20260505220036 8 35 0.0 3.2 0.05 0.46 0.46 84 1008.6
20260505215521 8 55 0.0 1.6 0.05 0.46 0.46 85 1008.5
20260505215047 8 34 0.0 3.2 0.05 0.46 0.46 84 1008.6
20260505214531 8 84 0.0 3.2 0.05 0.46 0.46 84 1008.4
20260505214021 8 24 0.0 3.2 0.03 0.43 0.43 84 1008.5
20260505213526 8 49 0.0 3.2 0.03 0.43 0.43 83 1008.3
20260505213050 8 71 0.0 6.4 0.03 0.43 0.43 83 1008.2
20260505212534 8 17 0.0 8.0 0.00 0.41 0.41 82 1008.3
20260505212018 8 38 0.0 6.4 0.00 0.41 0.41 81 1008.4
20260505211524 8 54 0.0 4.8 0.00 0.41 0.41 82 1008.4
20260505211028 9 10 0.0 3.2 0.05 0.41 0.41 83 1008.2
20260505210532 9 30 0.0 4.8 0.08 0.41 0.41 82 1008.3
20260505210038 9 93 0.0 4.8 0.08 0.41 0.41 82 1008.4
20260505205523 9 28 0.0 4.8 0.08 0.41 0.41 82 1008.1
20260505205028 9 27 0.0 4.8 0.08 0.41 0.41 82 1008.2
20260505204537 9 17 0.0 1.6 0.08 0.41 0.41 82 1008.2
20260505204044 9 44 0.0 1.6 0.08 0.41 0.41 82 1008.4
20260505203528 9 44 0.0 3.2 0.08 0.41 0.41 81 1008.3
20260505203053 9 35 0.0 3.2 0.08 0.41 0.41 81 1008.1
20260505202518 10 56 0.0 9.7 0.08 0.41 0.41 80 1008.0
20260505202043 10 38 0.0 9.7 0.08 0.41 0.41 78 1008.0
20260505201526 10 21 0.0 6.4 0.08 0.41 0.41 76 1008.0
20260505201031 10 41 0.0 12.9 0.03 0.36 0.36 73 1008.1
20260505200536 10 360 1.6 12.9 0.00 0.33 0.33 70 1008.2
20260505200021 10 63 0.0 9.7 0.00 0.33 0.33 70 1007.9
20260505195527 11 43 0.0 9.7 0.00 0.33 0.33 69 1007.9
20260505195032 11 85 0.0 9.7 0.00 0.33 0.33 68 1007.8
20260505194535 10 40 0.0 11.3 0.00 0.33 0.33 68 1007.8
20260505194024 10 115 3.2 11.3 0.00 0.33 0.33 67 1007.7
20260505193529 11 76 1.6 14.5 0.00 0.33 0.33 66 1008.0
20260505193035 11 53 1.6 19.3 0.00 0.33 0.33 66 1007.8
20260505192521 11 67 3.2 19.3 0.00 0.33 0.33 66 1007.8
20260505192027 11 19 0.0 11.3 0.00 0.33 0.33 68 1007.6
20260505191553 11 33 0.0 4.8 0.00 0.33 0.33 69 1007.8
20260505191037 11 62 0.0 16.1 0.00 0.33 0.33 69 1007.8
20260505190542 11 22 1.6 16.1 0.00 0.33 0.33 69 1007.7
20260505190046 11 34 1.6 9.7 0.00 0.33 0.33 69 1008.0
20260505185531 11 82 1.6 14.5 0.00 0.33 0.33 68 1008.1
20260505185055 11 22 1.6 14.5 0.00 0.33 0.33 68 1008.1
20260505184519 11 309 0.0 17.7 0.00 0.33 0.33 70 1008.2
20260505184024 11 22 3.2 16.1 0.00 0.33 0.33 69 1008.0
20260505183529 11 61 1.6 17.7 0.00 0.33 0.33 69 1007.8
20260505183018 11 32 3.2 24.1 0.00 0.33 0.33 68 1007.9
20260505182523 11 26 1.6 24.1 0.00 0.33 0.33 68 1007.7
20260505182027 11 22 1.6 17.7 0.00 0.33 0.33 70 1007.7
20260505181532 11 267 1.6 20.9 0.00 0.33 0.33 72 1007.7
20260505181037 11 74 3.2 20.9 0.00 0.33 0.33 71 1007.7
20260505180521 11 78 1.6 19.3 0.00 0.33 0.33 73 1007.7
20260505180047 11 76 3.2 19.3 0.00 0.33 0.33 75 1007.7
20260505175531 11 67 1.6 14.5 0.00 0.33 0.33 76 1007.8
20260505175036 11 55 1.6 14.5 0.00 0.33 0.33 77 1007.6
20260505174522 11 67 1.6 14.5 0.00 0.33 0.33 77 1007.6
20260505174026 11 92 1.6 14.5 0.00 0.33 0.33 77 1007.9
20260505173536 11 31 0.0 8.0 0.00 0.33 0.33 78 1008.1
20260505173021 11 49 0.0 3.2 0.00 0.33 0.33 79 1008.0
20260505172526 11 37 0.0 3.2 0.00 0.33 0.33 79 1008.0
20260505172052 11 350 0.0 1.6 0.00 0.33 0.33 80 1007.8
20260505171556 11 64 0.0 3.2 0.00 0.33 0.33 80 1007.8
20260505171040 11 56 0.0 4.8 0.00 0.33 0.33 80 1008.0
20260505170525 11 50 0.0 12.9 0.00 0.33 0.33 79 1007.9
20260505170032 11 71 1.6 12.9 0.00 0.33 0.33 79 1007.6
20260505165536 11 52 0.0 4.8 0.00 0.33 0.33 80 1007.6
20260505165020 11 57 0.0 4.8 0.00 0.33 0.33 82 1007.4
20260505164525 11 72 1.6 4.8 0.00 0.33 0.33 82 1007.2
20260505164030 11 39 0.0 14.5 0.08 0.33 0.33 82 1007.1
20260505163521 11 65 1.6 14.5 0.28 0.33 0.33 83 1007.1
20260505163027 11 36 0.0 9.7 0.33 0.33 0.33 84 1007.0
20260505162533 11 48 1.6 9.7 0.33 0.33 0.33 84 1007.0
20260505162038 11 24 0.0 8.0 0.33 0.33 0.33 86 1007.1
20260505161523 11 57 0.0 12.9 0.33 0.33 0.33 85 1007.4
20260505161030 11 56 0.0 3.2 0.33 0.33 0.33 85 1007.5
20260505160557 10 56 0.0 8.0 0.33 0.33 0.33 85 1007.4
20260505153023 12 20 0.0 1.6 0.00 0.00 0.00 74 1008.7
20260505152549 12 31 0.0 1.6 0.00 0.00 0.00 74 1008.2
20260505152035 12 41 0.0 3.2 0.00 0.00 0.00 74 1008.1
20260505151521 12 59 0.0 1.6 0.00 0.00 0.00 75 1007.7
20260505151027 12 38 0.0 8.0 0.00 0.00 0.00 75 1007.4
20260505150534 12 57 1.6 14.5 0.00 0.00 0.00 74 1007.0
20260505140529 11 70 0.0 12.9 0.00 0.00 0.00 80 1006.6